sat.trackr.live / text

‹ back to catalog

SKYSAT-C4

NORAD 41771 · 2016-058B

PAYLOAD ACTIVE UNKNOWN

§ Identity

Operator
Country
US
Launch date
2016-09-16
Launch site
FRGUI
Launch vehicle
Mass (kg)
RCS (m²)
0.39

Purposes: earth_obs

External: N2YO · Heavens-Above · Gunter

§ Orbital elements

Epoch: 2026-05-25T01:32:06.544032Z

Period
93.04 min
Inclination
96.9191°
Eccentricity
0.0001949
Mean motion
15.47768698 rev/d
Perigee alt
421.9 km
Apogee alt
424.6 km
Semi-major
6,801.4 km
B*
2.9177e-4
RAAN
167.8158°
Arg perigee
66.8313°
Mean anomaly
293.3144°
Rev number
54,189

§ Raw data

SKYSAT-C41 41771U 16058B   26145.06396463  .00015050  00000+0  29177-3 0  99942 41771  96.9191 167.8158 0001949  66.8313 293.3144 15.47768698541897

JSON: /api/v1/satellites/41771 · /tle

For live sub-satellite position, see the globe view (requires WebGL).

§ Visibility from observer

Set your observer location to see the next 7 days of passes ≥ 10°. The values pass through the URL so the page stays shareable.

No JS? Fill the form by hand. The geolocation button needs JavaScript.